Time,TemperatureF,DewpointF,PressureIn,WindDirection,WindDirectionDegrees,WindSpeedMPH,WindSpeedGustMPH,Humidity,HourlyPrecipIn,Conditions,Clouds,dailyrainin,SoftwareType,DateUTC
2013-06-10 00:00:00,67.0,67.0,30.07,NNE,22,0.0,2.0,100,0.00,,,0.00,Weather View 32 v70,2013-06-10 04:00:00,
2013-06-10 00:04:00,67.0,67.0,30.07,WSW,248,1.0,2.0,100,0.00,,,0.00,Weather View 32 v70,2013-06-10 04:04:00,
2013-06-10 00:09:00,67.0,67.0,30.07,WSW,248,1.0,2.0,100,0.00,,,0.00,Weather View 32 v70,2013-06-10 04:09:00,
2013-06-10 00:14:00,67.0,67.0,30.07,NW,315,1.0,2.0,100,0.00,,,0.00,Weather View 32 v70,2013-06-10 04:14:00,
2013-06-10 00:19:00,67.0,67.0,30.07,WNW,292,1.0,2.0,100,0.00,,,0.00,Weather View 32 v70,2013-06-10 04:19:00,
2013-06-10 00:24:00,67.0,67.0,30.07,WNW,292,1.0,2.0,100,0.00,,,0.00,Weather View 32 v70,2013-06-10 04:24:00,
2013-06-10 00:30:00,67.0,67.0,30.07,West,270,2.0,2.0,100,0.00,,,0.00,Weather View 32 v70,2013-06-10 04:30:00,
2013-06-10 00:39:00,67.0,67.0,30.08,NNW,338,1.0,3.0,100,0.00,,,0.00,Weather View 32 v70,2013-06-10 04:39:00,
2013-06-10 00:44:00,67.0,67.0,30.08,NNW,338,0.0,3.0,100,0.00,,,0.00,Weather View 32 v70,2013-06-10 04:44:00,
2013-06-10 00:49:00,67.0,67.0,30.08,West,270,1.0,3.0,100,0.00,,,0.00,Weather View 32 v70,2013-06-10 04:49:00,
2013-06-10 00:54:00,67.0,67.0,30.08,West,270,1.0,3.0,100,0.00,,,0.00,Weather View 32 v70,2013-06-10 04:54:00,
2013-06-10 00:59:00,67.0,67.0,30.07,West,270,2.0,3.0,100,0.00,,,0.00,Weather View 32 v70,2013-06-10 04:59:00,
2013-06-10 01:10:00,67.0,67.0,30.07,WNW,292,1.0,4.0,100,0.00,,,0.00,Weather View 32 v70,2013-06-10 05:10:00,
2013-06-10 01:19:00,67.0,67.0,30.07,NNE,22,0.0,4.0,100,0.00,,,0.00,Weather View 32 v70,2013-06-10 05:19:00,
2013-06-10 01:24:00,67.0,67.0,30.07,WNW,292,1.0,4.0,100,0.00,,,0.00,Weather View 32 v70,2013-06-10 05:24:00,
2013-06-10 01:30:00,67.0,67.0,30.07,NNW,338,0.0,4.0,100,0.00,,,0.00,Weather View 32 v70,2013-06-10 05:30:00,
2013-06-10 01:39:00,67.0,67.0,30.07,North,0,0.0,4.0,100,0.00,,,0.00,Weather View 32 v70,2013-06-10 05:39:00,
2013-06-10 01:44:00,67.0,67.0,30.07,NW,315,1.0,4.0,100,0.00,,,0.00,Weather View 32 v70,2013-06-10 05:44:00,
2013-06-10 01:54:00,67.0,67.0,30.07,ENE,68,0.0,4.0,100,0.00,,,0.00,Weather View 32 v70,2013-06-10 05:54:00,
2013-06-10 02:04:00,67.0,67.0,30.07,WNW,292,1.0,4.0,100,0.00,,,0.00,Weather View 32 v70,2013-06-10 06:04:00,
2013-06-10 02:10:00,67.0,67.0,30.07,NW,315,1.0,3.0,100,0.00,,,0.00,Weather View 32 v70,2013-06-10 06:10:00,
2013-06-10 02:19:00,67.0,67.0,30.06,North,0,0.0,2.0,100,0.00,,,0.00,Weather View 32 v70,2013-06-10 06:19:00,
2013-06-10 02:24:00,67.0,67.0,30.06,NNW,338,0.0,2.0,100,0.00,,,0.00,Weather View 32 v70,2013-06-10 06:24:00,
2013-06-10 02:34:00,67.0,67.0,30.06,NW,315,2.0,5.0,100,0.00,,,0.00,Weather View 32 v70,2013-06-10 06:34:00,
2013-06-10 02:40:00,67.0,67.0,30.06,WSW,248,1.0,5.0,100,0.00,,,0.00,Weather View 32 v70,2013-06-10 06:40:00,
2013-06-10 02:49:00,67.0,67.0,30.06,SSW,202,1.0,5.0,100,0.00,,,0.00,Weather View 32 v70,2013-06-10 06:49:00,
2013-06-10 02:54:00,67.0,67.0,30.06,West,270,1.0,5.0,100,0.00,,,0.00,Weather View 32 v70,2013-06-10 06:54:00,
2013-06-10 03:04:00,66.0,66.0,30.06,WNW,292,1.0,5.0,100,0.00,,,0.00,Weather View 32 v70,2013-06-10 07:04:00,
2013-06-10 03:10:00,66.0,66.0,30.05,WNW,292,1.0,5.0,100,0.00,,,0.00,Weather View 32 v70,2013-06-10 07:10:00,
2013-06-10 03:19:00,66.0,66.0,30.05,WNW,292,1.0,5.0,100,0.00,,,0.00,Weather View 32 v70,2013-06-10 07:19:00,
2013-06-10 03:24:00,66.0,66.0,30.05,West,270,2.0,5.0,100,0.00,,,0.00,Weather View 32 v70,2013-06-10 07:24:00,
2013-06-10 03:30:00,66.0,66.0,30.05,West,270,2.0,5.0,100,0.00,,,0.00,Weather View 32 v70,2013-06-10 07:30:00,
2013-06-10 03:39:00,66.0,66.0,30.05,WSW,248,3.0,4.0,100,0.00,,,0.00,Weather View 32 v70,2013-06-10 07:39:00,
2013-06-10 03:44:00,66.0,66.0,30.05,WNW,292,3.0,4.0,100,0.00,,,0.00,Weather View 32 v70,2013-06-10 07:44:00,
2013-06-10 03:54:00,66.0,66.0,30.05,West,270,1.0,4.0,100,0.00,,,0.00,Weather View 32 v70,2013-06-10 07:54:00,
2013-06-10 04:04:00,66.0,66.0,30.04,NW,315,0.0,4.0,100,0.00,,,0.00,Weather View 32 v70,2013-06-10 08:04:00,
2013-06-10 04:09:00,66.0,66.0,30.05,WSW,248,2.0,4.0,100,0.00,,,0.00,Weather View 32 v70,2013-06-10 08:09:00,
2013-06-10 04:19:00,66.0,66.0,30.05,WSW,248,0.0,4.0,100,0.00,,,0.00,Weather View 32 v70,2013-06-10 08:19:00,
2013-06-10 04:29:00,66.0,66.0,30.05,NNE,22,1.0,4.0,100,0.00,,,0.00,Weather View 32 v70,2013-06-10 08:29:00,
2013-06-10 04:40:00,66.0,66.0,30.05,NNW,338,1.0,4.0,100,0.00,,,0.00,Weather View 32 v70,2013-06-10 08:40:00,
2013-06-10 04:49:00,66.0,66.0,30.05,NNW,338,2.0,4.0,100,0.00,,,0.00,Weather View 32 v70,2013-06-10 08:49:00,
2013-06-10 04:54:00,66.0,66.0,30.04,NW,315,1.0,3.0,100,0.00,,,0.00,Weather View 32 v70,2013-06-10 08:54:00,
2013-06-10 05:04:00,66.0,66.0,30.04,NW,315,1.0,3.0,100,0.00,,,0.00,Weather View 32 v70,2013-06-10 09:04:00,
2013-06-10 05:09:00,66.0,66.0,30.04,WNW,292,2.0,3.0,100,0.00,,,0.00,Weather View 32 v70,2013-06-10 09:09:00,
2013-06-10 05:20:00,66.0,66.0,30.04,NW,315,2.0,3.0,100,0.00,,,0.00,Weather View 32 v70,2013-06-10 09:20:00,
2013-06-10 05:30:00,66.0,66.0,30.04,WNW,292,2.0,3.0,100,0.00,,,0.00,Weather View 32 v70,2013-06-10 09:30:00,
2013-06-10 05:39:00,66.0,66.0,30.04,North,0,1.0,3.0,100,0.00,,,0.00,Weather View 32 v70,2013-06-10 09:39:00,
2013-06-10 05:44:00,66.0,66.0,30.04,NNW,338,3.0,4.0,100,0.00,,,0.00,Weather View 32 v70,2013-06-10 09:44:00,
2013-06-10 05:49:00,66.0,66.0,30.04,West,270,4.0,5.0,100,0.00,,,0.00,Weather View 32 v70,2013-06-10 09:49:00,
2013-06-10 05:54:00,66.0,66.0,30.04,SW,225,1.0,5.0,100,0.00,,,0.00,Weather View 32 v70,2013-06-10 09:54:00,
2013-06-10 06:00:00,66.0,66.0,30.04,WSW,248,3.0,5.0,100,0.00,,,0.00,Weather View 32 v70,2013-06-10 10:00:00,
2013-06-10 06:09:00,66.0,66.0,30.05,WSW,248,3.0,5.0,100,0.00,,,0.00,Weather View 32 v70,2013-06-10 10:09:00,
2013-06-10 06:14:00,66.0,66.0,30.04,NW,315,3.0,5.0,100,0.00,,,0.00,Weather View 32 v70,2013-06-10 10:14:00,
2013-06-10 06:20:00,66.0,66.0,30.04,West,270,3.0,5.0,100,0.00,,,0.00,Weather View 32 v70,2013-06-10 10:20:00,
2013-06-10 06:29:00,66.0,66.0,30.04,NW,315,1.0,5.0,100,0.00,,,0.00,Weather View 32 v70,2013-06-10 10:29:00,
2013-06-10 06:39:00,66.0,66.0,30.04,NNW,338,1.0,5.0,100,0.00,,,0.00,Weather View 32 v70,2013-06-10 10:39:00,
2013-06-10 06:44:00,66.0,66.0,30.04,North,0,3.0,5.0,100,0.00,,,0.00,Weather View 32 v70,2013-06-10 10:44:00,
2013-06-10 06:49:00,66.0,66.0,30.04,West,270,2.0,5.0,100,0.00,,,0.00,Weather View 32 v70,2013-06-10 10:49:00,
2013-06-10 06:59:00,67.0,67.0,30.04,WSW,248,3.0,5.0,100,0.00,,,0.00,Weather View 32 v70,2013-06-10 10:59:00,
2013-06-10 07:04:00,67.0,67.0,30.04,WNW,292,3.0,5.0,100,0.00,,,0.00,Weather View 32 v70,2013-06-10 11:04:00,
2013-06-10 07:13:00,66.0,66.0,30.03,West,270,2.0,5.0,100,0.00,,,0.00,Weather View 32 v70,2013-06-10 11:13:00,
2013-06-10 07:19:00,66.0,66.0,30.04,WNW,292,5.0,6.0,100,0.00,,,0.00,Weather View 32 v70,2013-06-10 11:19:00,
2013-06-10 07:24:00,66.0,66.0,30.04,WNW,292,3.0,6.0,100,0.00,,,0.00,Weather View 32 v70,2013-06-10 11:24:00,
2013-06-10 07:30:00,66.0,66.0,30.04,West,270,3.0,6.0,100,0.00,,,0.00,Weather View 32 v70,2013-06-10 11:30:00,
2013-06-10 07:40:00,66.0,66.0,30.04,West,270,1.0,6.0,100,0.00,,,0.00,Weather View 32 v70,2013-06-10 11:40:00,
2013-06-10 07:49:00,66.0,66.0,30.04,WNW,292,1.0,6.0,100,0.01,,,0.01,Weather View 32 v70,2013-06-10 11:49:00,
2013-06-10 07:59:00,66.0,66.0,30.03,North,0,3.0,6.0,100,0.03,,,0.03,Weather View 32 v70,2013-06-10 11:59:00,
2013-06-10 08:10:00,66.0,66.0,30.03,WNW,292,3.0,6.0,100,0.04,,,0.04,Weather View 32 v70,2013-06-10 12:10:00,
2013-06-10 08:20:00,66.0,66.0,30.03,North,0,1.0,6.0,100,0.04,,,0.04,Weather View 32 v70,2013-06-10 12:20:00,
2013-06-10 08:30:00,67.0,67.0,30.02,SSE,158,1.0,6.0,100,0.06,,,0.06,Weather View 32 v70,2013-06-10 12:30:00,
2013-06-10 08:40:00,67.0,67.0,30.04,SSE,158,5.0,6.0,100,0.08,,,0.08,Weather View 32 v70,2013-06-10 12:40:00,
2013-06-10 08:49:00,66.0,66.0,30.05,West,270,6.0,17.0,100,0.23,,,0.24,Weather View 32 v70,2013-06-10 12:49:00,
2013-06-10 08:59:00,66.0,66.0,30.04,WNW,292,2.0,17.0,100,0.36,,,0.39,Weather View 32 v70,2013-06-10 12:59:00,
2013-06-10 09:04:00,66.0,66.0,30.03,WSW,248,3.0,17.0,100,0.45,,,0.48,Weather View 32 v70,2013-06-10 13:04:00,
2013-06-10 09:10:00,66.0,66.0,30.03,WNW,292,3.0,17.0,100,0.45,,,0.49,Weather View 32 v70,2013-06-10 13:10:00,
2013-06-10 09:19:00,67.0,67.0,30.03,WNW,292,1.0,17.0,100,0.46,,,0.50,Weather View 32 v70,2013-06-10 13:19:00,
2013-06-10 09:24:00,67.0,67.0,30.03,North,0,3.0,17.0,100,0.45,,,0.50,Weather View 32 v70,2013-06-10 13:24:00,
2013-06-10 09:30:00,67.0,67.0,30.03,WNW,292,3.0,17.0,100,0.45,,,0.51,Weather View 32 v70,2013-06-10 13:30:00,
2013-06-10 09:39:00,67.0,67.0,30.02,NNW,338,3.0,17.0,100,0.44,,,0.52,Weather View 32 v70,2013-06-10 13:39:00,
2013-06-10 09:49:00,67.0,67.0,30.01,NW,315,5.0,8.0,100,0.28,,,0.52,Weather View 32 v70,2013-06-10 13:49:00,
2013-06-10 10:03:00,67.0,67.0,30.01,North,0,3.0,9.0,100,0.13,,,0.52,Weather View 32 v70,2013-06-10 14:03:00,
2013-06-10 10:10:00,68.0,68.0,30.01,NE,45,6.0,9.0,100,0.03,,,0.52,Weather View 32 v70,2013-06-10 14:10:00,
2013-06-10 10:15:00,67.0,67.0,30.01,NNW,338,4.0,11.0,100,0.03,,,0.52,Weather View 32 v70,2013-06-10 14:15:00,
2013-06-10 10:24:00,68.0,68.0,30.00,NE,45,4.0,12.0,100,0.02,,,0.52,Weather View 32 v70,2013-06-10 14:24:00,
2013-06-10 10:30:00,68.0,68.0,30.00,NW,315,5.0,12.0,100,0.01,,,0.52,Weather View 32 v70,2013-06-10 14:30:00,
2013-06-10 10:39:00,68.0,68.0,30.00,NW,315,5.0,13.0,100,0.00,,,0.52,Weather View 32 v70,2013-06-10 14:39:00,
2013-06-10 10:44:00,68.0,68.0,30.00,NNE,22,5.0,14.0,100,0.00,,,0.52,Weather View 32 v70,2013-06-10 14:44:00,
2013-06-10 10:54:00,68.0,68.0,30.00,NNE,22,5.0,14.0,100,0.00,,,0.52,Weather View 32 v70,2013-06-10 14:54:00,
2013-06-10 10:59:00,68.0,68.0,30.00,North,0,5.0,14.0,100,0.00,,,0.52,Weather View 32 v70,2013-06-10 14:59:00,
2013-06-10 11:10:00,68.0,68.0,30.00,NNE,22,8.0,14.0,100,0.00,,,0.52,Weather View 32 v70,2013-06-10 15:10:00,
2013-06-10 11:16:00,68.0,68.0,29.99,NNE,22,5.0,14.0,100,0.00,,,0.52,Weather View 32 v70,2013-06-10 15:16:00,
2013-06-10 11:24:00,68.0,68.0,29.99,North,0,8.0,14.0,100,0.00,,,0.52,Weather View 32 v70,2013-06-10 15:24:00,
2013-06-10 11:29:00,68.0,68.0,29.99,North,0,6.0,14.0,100,0.00,,,0.52,Weather View 32 v70,2013-06-10 15:29:00,
2013-06-10 11:34:00,69.0,69.0,29.99,NNE,22,4.0,14.0,100,0.00,,,0.52,Weather View 32 v70,2013-06-10 15:34:00,
2013-06-10 11:44:00,68.0,68.0,29.99,NNW,338,6.0,14.0,100,0.00,,,0.52,Weather View 32 v70,2013-06-10 15:44:00,
2013-06-10 11:54:00,68.0,68.0,29.99,NNW,338,9.0,15.0,100,0.00,,,0.52,Weather View 32 v70,2013-06-10 15:54:00,
2013-06-10 12:04:00,68.0,68.0,29.98,North,0,5.0,15.0,100,0.00,,,0.52,Weather View 32 v70,2013-06-10 16:04:00,
2013-06-10 12:09:00,68.0,68.0,29.98,North,0,12.0,15.0,100,0.00,,,0.52,Weather View 32 v70,2013-06-10 16:09:00,
2013-06-10 12:14:00,68.0,68.0,29.98,NNE,22,7.0,15.0,100,0.00,,,0.52,Weather View 32 v70,2013-06-10 16:14:00,
2013-06-10 12:19:00,68.0,68.0,29.98,North,0,11.0,15.0,100,0.00,,,0.52,Weather View 32 v70,2013-06-10 16:19:00,
2013-06-10 12:24:00,68.0,68.0,29.98,North,0,7.0,15.0,100,0.00,,,0.52,Weather View 32 v70,2013-06-10 16:24:00,
2013-06-10 12:34:00,68.0,68.0,29.98,NNW,338,4.0,15.0,100,0.00,,,0.52,Weather View 32 v70,2013-06-10 16:34:00,
2013-06-10 12:39:00,68.0,68.0,29.97,NNE,22,6.0,15.0,100,0.00,,,0.52,Weather View 32 v70,2013-06-10 16:39:00,
2013-06-10 12:44:00,68.0,68.0,29.97,NNE,22,6.0,15.0,100,0.00,,,0.52,Weather View 32 v70,2013-06-10 16:44:00,
2013-06-10 12:49:00,68.0,68.0,29.97,NNW,338,3.0,15.0,100,0.00,,,0.52,Weather View 32 v70,2013-06-10 16:49:00,
2013-06-10 13:00:00,68.0,68.0,29.96,NNE,22,9.0,15.0,100,0.00,,,0.52,Weather View 32 v70,2013-06-10 17:00:00,
2013-06-10 13:09:00,68.0,68.0,29.96,North,0,5.0,15.0,100,0.00,,,0.52,Weather View 32 v70,2013-06-10 17:09:00,
2013-06-10 13:14:00,68.0,68.0,29.96,NNE,22,8.0,15.0,100,0.00,,,0.52,Weather View 32 v70,2013-06-10 17:14:00,
2013-06-10 13:24:00,68.0,68.0,29.95,NNW,338,5.0,15.0,100,0.00,,,0.52,Weather View 32 v70,2013-06-10 17:24:00,
2013-06-10 13:34:00,68.0,68.0,29.95,NNW,338,8.0,15.0,100,0.00,,,0.52,Weather View 32 v70,2013-06-10 17:34:00,
2013-06-10 13:40:00,68.0,68.0,29.95,NNE,22,9.0,15.0,100,0.00,,,0.52,Weather View 32 v70,2013-06-10 17:40:00,
2013-06-10 13:49:00,67.0,67.0,29.94,NNE,22,8.0,15.0,100,0.01,,,0.53,Weather View 32 v70,2013-06-10 17:49:00,
2013-06-10 13:54:00,67.0,67.0,29.94,North,0,13.0,15.0,100,0.01,,,0.53,Weather View 32 v70,2013-06-10 17:54:00,
2013-06-10 14:04:00,67.0,67.0,29.93,NNE,22,9.0,14.0,100,0.03,,,0.55,Weather View 32 v70,2013-06-10 18:04:00,
2013-06-10 14:09:00,67.0,67.0,29.93,North,0,7.0,14.0,100,0.04,,,0.56,Weather View 32 v70,2013-06-10 18:09:00,
2013-06-10 14:14:00,66.0,66.0,29.93,NNW,338,6.0,14.0,100,0.07,,,0.59,Weather View 32 v70,2013-06-10 18:14:00,
2013-06-10 14:20:00,66.0,66.0,29.92,NNE,22,11.0,14.0,100,0.08,,,0.60,Weather View 32 v70,2013-06-10 18:20:00,
2013-06-10 14:34:00,66.0,66.0,29.92,NNE,22,6.0,14.0,100,0.15,,,0.67,Weather View 32 v70,2013-06-10 18:34:00,
2013-06-10 14:44:00,67.0,67.0,29.92,North,0,7.0,14.0,100,0.21,,,0.73,Weather View 32 v70,2013-06-10 18:44:00,
2013-06-10 14:54:00,66.0,66.0,29.91,NNE,22,8.0,14.0,100,0.26,,,0.79,Weather View 32 v70,2013-06-10 18:54:00,
2013-06-10 15:10:00,67.0,67.0,29.91,NNE,22,4.0,14.0,100,0.30,,,0.86,Weather View 32 v70,2013-06-10 19:10:00,
2013-06-10 15:18:00,67.0,67.0,29.91,North,0,5.0,14.0,100,0.27,,,0.86,Weather View 32 v70,2013-06-10 19:18:00,
2013-06-10 15:24:00,66.0,66.0,29.90,NNW,338,5.0,14.0,100,0.24,,,0.86,Weather View 32 v70,2013-06-10 19:24:00,
2013-06-10 15:34:00,67.0,67.0,29.89,North,0,5.0,14.0,100,0.19,,,0.86,Weather View 32 v70,2013-06-10 19:34:00,
2013-06-10 15:40:00,67.0,67.0,29.89,North,0,4.0,14.0,100,0.17,,,0.86,Weather View 32 v70,2013-06-10 19:40:00,
2013-06-10 15:49:00,67.0,67.0,29.88,North,0,5.0,14.0,100,0.09,,,0.86,Weather View 32 v70,2013-06-10 19:49:00,
2013-06-10 15:59:00,67.0,67.0,29.88,NW,315,7.0,14.0,100,0.04,,,0.87,Weather View 32 v70,2013-06-10 19:59:00,
2013-06-10 16:10:00,66.0,66.0,29.88,NNW,338,5.0,14.0,100,0.05,,,0.91,Weather View 32 v70,2013-06-10 20:10:00,
2013-06-10 16:18:00,66.0,66.0,29.88,ESE,112,2.0,14.0,100,0.08,,,0.94,Weather View 32 v70,2013-06-10 20:18:00,
2013-06-10 16:24:00,66.0,66.0,29.87,North,0,8.0,14.0,100,0.10,,,0.96,Weather View 32 v70,2013-06-10 20:24:00,
2013-06-10 16:34:00,66.0,66.0,29.87,NNE,22,9.0,14.0,100,0.12,,,0.98,Weather View 32 v70,2013-06-10 20:34:00,
2013-06-10 16:44:00,67.0,67.0,29.88,North,0,4.0,14.0,100,0.13,,,0.99,Weather View 32 v70,2013-06-10 20:44:00,
2013-06-10 16:54:00,67.0,67.0,29.87,NNE,22,6.0,14.0,100,0.14,,,1.00,Weather View 32 v70,2013-06-10 20:54:00,
2013-06-10 16:59:00,67.0,67.0,29.87,NNE,22,7.0,14.0,100,0.14,,,1.01,Weather View 32 v70,2013-06-10 20:59:00,
2013-06-10 17:04:00,67.0,67.0,29.86,NNE,22,3.0,14.0,100,0.12,,,1.01,Weather View 32 v70,2013-06-10 21:04:00,
2013-06-10 17:10:00,66.0,66.0,29.86,NNW,338,5.0,11.0,100,0.10,,,1.01,Weather View 32 v70,2013-06-10 21:10:00,
2013-06-10 17:19:00,66.0,66.0,29.86,NNW,338,5.0,11.0,100,0.07,,,1.01,Weather View 32 v70,2013-06-10 21:19:00,
2013-06-10 17:24:00,66.0,66.0,29.85,NNE,22,3.0,11.0,100,0.08,,,1.04,Weather View 32 v70,2013-06-10 21:24:00,
2013-06-10 17:30:00,66.0,66.0,29.85,WSW,248,5.0,11.0,100,0.09,,,1.06,Weather View 32 v70,2013-06-10 21:30:00,
2013-06-10 17:39:00,66.0,66.0,29.84,North,0,3.0,12.0,100,0.10,,,1.09,Weather View 32 v70,2013-06-10 21:39:00,
2013-06-10 17:44:00,66.0,66.0,29.84,NNW,338,5.0,12.0,100,0.12,,,1.11,Weather View 32 v70,2013-06-10 21:44:00,
2013-06-10 17:49:00,66.0,66.0,29.84,NNW,338,7.0,12.0,100,0.13,,,1.13,Weather View 32 v70,2013-06-10 21:49:00,
2013-06-10 17:59:00,66.0,66.0,29.84,NW,315,1.0,12.0,100,0.14,,,1.15,Weather View 32 v70,2013-06-10 21:59:00,
2013-06-10 18:04:00,66.0,66.0,29.84,NW,315,6.0,12.0,100,0.15,,,1.16,Weather View 32 v70,2013-06-10 22:04:00,
2013-06-10 18:14:00,66.0,66.0,29.83,North,0,5.0,12.0,100,0.16,,,1.17,Weather View 32 v70,2013-06-10 22:14:00,
2013-06-10 18:20:00,66.0,66.0,29.83,NNE,22,11.0,12.0,100,0.15,,,1.17,Weather View 32 v70,2013-06-10 22:20:00,
2013-06-10 18:29:00,66.0,66.0,29.82,North,0,6.0,12.0,100,0.12,,,1.18,Weather View 32 v70,2013-06-10 22:29:00,
2013-06-10 18:34:00,66.0,66.0,29.82,NW,315,6.0,12.0,100,0.12,,,1.20,Weather View 32 v70,2013-06-10 22:34:00,
2013-06-10 18:40:00,66.0,66.0,29.82,NNE,22,6.0,11.0,100,0.14,,,1.23,Weather View 32 v70,2013-06-10 22:40:00,
2013-06-10 18:49:00,66.0,66.0,29.81,NNW,338,6.0,14.0,100,0.17,,,1.30,Weather View 32 v70,2013-06-10 22:49:00,
2013-06-10 19:00:00,66.0,66.0,29.81,NNW,338,6.0,14.0,100,0.22,,,1.37,Weather View 32 v70,2013-06-10 23:00:00,
2013-06-10 19:09:00,66.0,66.0,29.80,North,0,7.0,15.0,100,0.27,,,1.44,Weather View 32 v70,2013-06-10 23:09:00,
2013-06-10 19:14:00,66.0,66.0,29.80,NNE,22,5.0,15.0,100,0.30,,,1.47,Weather View 32 v70,2013-06-10 23:14:00,
2013-06-10 19:20:00,66.0,66.0,29.80,NNE,22,9.0,15.0,100,0.33,,,1.50,Weather View 32 v70,2013-06-10 23:20:00,
2013-06-10 19:29:00,66.0,66.0,29.79,NNE,22,6.0,15.0,100,0.34,,,1.52,Weather View 32 v70,2013-06-10 23:29:00,
2013-06-10 19:34:00,67.0,67.0,29.79,North,0,6.0,15.0,100,0.33,,,1.53,Weather View 32 v70,2013-06-10 23:34:00,
2013-06-10 19:44:00,67.0,67.0,29.79,NNW,338,4.0,15.0,100,0.26,,,1.54,Weather View 32 v70,2013-06-10 23:44:00,
2013-06-10 19:49:00,67.0,67.0,29.79,NNE,22,5.0,15.0,100,0.24,,,1.54,Weather View 32 v70,2013-06-10 23:49:00,
2013-06-10 19:54:00,67.0,67.0,29.78,NNE,22,5.0,15.0,100,0.21,,,1.54,Weather View 32 v70,2013-06-10 23:54:00,
2013-06-10 19:59:00,67.0,67.0,29.78,NNE,22,6.0,15.0,100,0.17,,,1.54,Weather View 32 v70,2013-06-10 23:59:00,
2013-06-10 20:04:00,67.0,67.0,29.78,North,0,3.0,15.0,100,0.14,,,1.54,Weather View 32 v70,2013-06-11 00:04:00,
2013-06-10 20:10:00,67.0,67.0,29.78,North,0,4.0,14.0,100,0.10,,,1.54,Weather View 32 v70,2013-06-11 00:10:00,
2013-06-10 20:20:00,68.0,68.0,29.77,NNE,22,3.0,13.0,100,0.04,,,1.54,Weather View 32 v70,2013-06-11 00:20:00,
2013-06-10 20:30:00,68.0,67.7,29.77,North,0,1.0,12.0,99,0.02,,,1.54,Weather View 32 v70,2013-06-11 00:30:00,
2013-06-10 20:39:00,68.0,67.7,29.76,NW,315,1.0,10.0,99,0.01,,,1.54,Weather View 32 v70,2013-06-11 00:39:00,
2013-06-10 20:44:00,69.0,68.4,29.76,NNE,22,1.0,9.0,98,0.00,,,1.54,Weather View 32 v70,2013-06-11 00:44:00,
2013-06-10 20:49:00,70.0,69.4,29.76,NE,45,0.0,8.0,98,0.00,,,1.54,Weather View 32 v70,2013-06-11 00:49:00,
2013-06-10 20:54:00,70.0,69.4,29.76,SW,225,1.0,8.0,98,0.00,,,1.54,Weather View 32 v70,2013-06-11 00:54:00,
2013-06-10 21:00:00,69.0,68.7,29.76,NW,315,2.0,7.0,99,0.00,,,1.54,Weather View 32 v70,2013-06-11 01:00:00,
2013-06-10 21:09:00,69.0,68.7,29.76,WNW,292,3.0,7.0,99,0.00,,,1.54,Weather View 32 v70,2013-06-11 01:09:00,
2013-06-10 21:19:00,69.0,68.4,29.76,NNW,338,3.0,6.0,98,0.00,,,1.54,Weather View 32 v70,2013-06-11 01:19:00,
2013-06-10 21:24:00,69.0,68.4,29.77,West,270,1.0,5.0,98,0.00,,,1.54,Weather View 32 v70,2013-06-11 01:24:00,
2013-06-10 21:34:00,70.0,69.1,29.77,NE,45,0.0,5.0,97,0.00,,,1.54,Weather View 32 v70,2013-06-11 01:34:00,
2013-06-10 21:44:00,71.0,69.8,29.76,South,180,1.0,5.0,96,0.00,,,1.54,Weather View 32 v70,2013-06-11 01:44:00,
2013-06-10 21:49:00,72.0,70.8,29.77,SE,135,3.0,5.0,96,0.00,,,1.54,Weather View 32 v70,2013-06-11 01:49:00,
2013-06-10 21:59:00,72.0,70.5,29.77,NE,45,5.0,10.0,95,0.00,,,1.54,Weather View 32 v70,2013-06-11 01:59:00,
2013-06-10 22:04:00,72.0,70.8,29.77,ENE,68,4.0,10.0,96,0.00,,,1.54,Weather View 32 v70,2013-06-11 02:04:00,
2013-06-10 22:09:00,72.0,70.8,29.76,ENE,68,2.0,10.0,96,0.00,,,1.54,Weather View 32 v70,2013-06-11 02:09:00,
2013-06-10 22:14:00,73.0,71.8,29.76,ESE,112,6.0,10.0,96,0.00,,,1.54,Weather View 32 v70,2013-06-11 02:14:00,
2013-06-10 22:20:00,73.0,71.8,29.76,East,90,6.0,11.0,96,0.00,,,1.54,Weather View 32 v70,2013-06-11 02:20:00,
2013-06-10 22:29:00,73.0,71.8,29.76,East,90,4.0,11.0,96,0.00,,,1.54,Weather View 32 v70,2013-06-11 02:29:00,
2013-06-10 22:34:00,73.0,71.8,29.76,ENE,68,3.0,11.0,96,0.00,,,1.54,Weather View 32 v70,2013-06-11 02:34:00,
2013-06-10 22:39:00,73.0,72.1,29.75,ENE,68,6.0,11.0,97,0.00,,,1.54,Weather View 32 v70,2013-06-11 02:39:00,
2013-06-10 22:44:00,73.0,72.1,29.75,ESE,112,5.0,11.0,97,0.00,,,1.54,Weather View 32 v70,2013-06-11 02:44:00,
2013-06-10 22:49:00,73.0,72.1,29.75,ESE,112,10.0,11.0,97,0.00,,,1.54,Weather View 32 v70,2013-06-11 02:49:00,
2013-06-10 22:59:00,73.0,72.1,29.74,SE,135,3.0,11.0,97,0.00,,,1.54,Weather View 32 v70,2013-06-11 02:59:00,
2013-06-10 23:04:00,73.0,72.1,29.74,East,90,8.0,12.0,97,0.00,,,1.54,Weather View 32 v70,2013-06-11 03:04:00,
2013-06-10 23:14:00,73.0,72.1,29.74,ESE,112,6.0,12.0,97,0.00,,,1.54,Weather View 32 v70,2013-06-11 03:14:00,
2013-06-10 23:19:00,73.0,72.4,29.73,East,90,5.0,12.0,98,0.00,,,1.54,Weather View 32 v70,2013-06-11 03:19:00,
2013-06-10 23:30:00,73.0,72.4,29.73,East,90,5.0,12.0,98,0.01,,,1.55,Weather View 32 v70,2013-06-11 03:30:00,
2013-06-10 23:40:00,72.0,71.7,29.72,East,90,10.0,12.0,99,0.01,,,1.55,Weather View 32 v70,2013-06-11 03:40:00,
2013-06-10 23:49:00,72.0,72.0,29.72,ESE,112,9.0,12.0,100,0.01,,,1.55,Weather View 32 v70,2013-06-11 03:49:00,
2013-06-10 23:54:00,72.0,72.0,29.72,East,90,6.0,12.0,100,0.01,,,1.55,Weather View 32 v70,2013-06-11 03:54:00,